Weather History for Alderney, United Kingdom

Change the Weather History Date:

Saturday, November 17, 2012

  Actual Average Record
Temperature  
Mean Temperature 52 °F -  
Max Temperature 53 °F 49 °F 57 °F (2006)
Min Temperature 50 °F 45 °F 44 °F (2005)
Degree Days  
Heating Degree Days 14    
Growing Degree Days 2 (Base 50)    
Moisture  
Dew Point 48 °F    
Average Humidity 89    
Maximum Humidity 100    
Minimum Humidity 82    
Precipitation  
Precipitation 0.00 in - - ()
Sea Level Pressure  
Sea Level Pressure 29.79 in    
Wind  
Wind Speed 8 mph ()    
Max Wind Speed 14 mph    
Max Gust Speed -    
Visibility 6.2 miles    
Events Rain    
Averages and records for this station are not official NWS values.
T = Trace of Precipitation, MM = Missing Value Source: Averaged Metar Reports

Daily Weather History Graph

Daily Weather History Graph

Search for Another Location

Airport:

Trip Planner

Search our weather history database for the weather conditions in past years. The results will help you decide how hot, cold, wet, or windy it might be!

Date:

Astronomy

Nov. 17, 2012 Rise Set
Actual Time 7:24 AM GMT 4:22 PM GMT
Civil Twilight 6:48 AM GMT 4:58 PM GMT
Nautical Twilight 6:09 AM GMT 5:37 PM GMT
Astronomical Twilight 5:31 AM GMT 6:15 PM GMT
Moon 10:59 AM GMT (11/17) 8:15 PM GMT (11/17)
Length of Visible Light 10h 09m
Length of Day
8h 58m
Waxing Crescent, 18% of the Moon is Illuminated
Nov 17
Waxing Crescent
Nov 20
First Quarter
Nov 28
Full
Dec 6
Last Quarter
Dec 13
New

Hourly Weather History & Observations

Time (GMT) Temp. Dew Point Humidity Pressure Visibility Wind Dir Wind Speed Gust Speed Precip Events Conditions
6:50 AM 53.6 °F 53.6 °F 100% 29.74 in 6.2 mi West 9.2 mph - N/A   Scattered Clouds
7:20 AM 53.6 °F 53.6 °F 100% 29.77 in 6.2 mi West 10.4 mph - N/A   Mostly Cloudy
7:50 AM 51.8 °F 51.8 °F 100% 29.77 in 6.2 mi West 8.1 mph - N/A   Mostly Cloudy
8:20 AM 51.8 °F 51.8 °F 100% 29.77 in 6.2 mi NW 9.2 mph - N/A   Mostly Cloudy
8:50 AM 51.8 °F 50.0 °F 94% 29.77 in 6.2 mi NW 8.1 mph - N/A   Mostly Cloudy
9:20 AM 51.8 °F 50.0 °F 94% 29.77 in 6.2 mi NNW 6.9 mph - N/A   Mostly Cloudy
9:50 AM 51.8 °F 48.2 °F 88% 29.77 in 6.2 mi NW 4.6 mph - N/A   Mostly Cloudy
10:20 AM 51.8 °F 48.2 °F 88% 29.80 in 6.2 mi NW 6.9 mph - N/A   Mostly Cloudy
10:50 AM 51.8 °F 48.2 °F 88% 29.80 in 6.2 mi NNW 6.9 mph - N/A   Mostly Cloudy
11:20 AM 51.8 °F 48.2 °F 88% 29.77 in 6.2 mi NNW 5.8 mph - N/A   Mostly Cloudy
11:50 AM 51.8 °F 48.2 °F 88% 29.77 in 6.2 mi NNW 10.4 mph - N/A   Mostly Cloudy
12:20 PM 51.8 °F 48.2 °F 88% 29.77 in 6.2 mi NNW 12.7 mph - N/A Rain Light Rain
12:50 PM 50.0 °F 46.4 °F 87% 29.80 in 6.2 mi NNW 12.7 mph - N/A Rain Light Rain
1:20 PM 51.8 °F 46.4 °F 82% 29.80 in 6.2 mi NNW 13.8 mph - N/A Rain Rain
1:50 PM 50.0 °F 48.2 °F 94% 29.77 in 6.2 mi NNW 12.7 mph - N/A Rain Rain
2:20 PM 50.0 °F 46.4 °F 87% 29.77 in 6.2 mi NNW 11.5 mph - N/A Rain Light Rain
2:50 PM 50.0 °F 46.4 °F 87% 29.80 in 6.2 mi NNW 11.5 mph - N/A Rain Light Rain
3:20 PM 50.0 °F 46.4 °F 87% 29.80 in 6.2 mi NNW 9.2 mph - N/A Rain Light Rain
3:50 PM 50.0 °F 46.4 °F 87% 29.80 in 6.2 mi North 8.1 mph - N/A Rain Light Rain
4:20 PM 50.0 °F 46.4 °F 87% 29.80 in 6.2 mi NNW 9.2 mph - N/A   Partly Cloudy
4:50 PM 50.0 °F 44.6 °F 82% 29.80 in 6.2 mi North 9.2 mph - N/A   Partly Cloudy
5:20 PM 50.0 °F 46.4 °F 87% 29.80 in 6.2 mi North 6.9 mph - N/A   Partly Cloudy
5:50 PM 50.0 °F 44.6 °F 82% 29.83 in 6.2 mi NNW 11.5 mph - N/A   Scattered Clouds
6:20 PM 50.0 °F 44.6 °F 82% 29.83 in 6.2 mi NNW 13.8 mph - N/A   Scattered Clouds